| time (UTC) | temp F | wind direction | speed MPH | gust MPH | rain 1hr in | rain 24hr in | rain mn in | humidity % | barometer mb |
| 20260507052022 | 29 | 360 | 0.0 | 0.0 | 0.00 | 0.00 | 0.00 | 78 | 1013.0 |
| 20260507051522 | 29 | 360 | 0.0 | 0.0 | 0.00 | 0.00 | 0.00 | 78 | 1013.0 |
| 20260507051026 | 0 | 0.0 | 0.0 | 0.00 | 0.00 | 0.00 | 1014.9 | ||
| 20260507045012 | 29 | 360 | 0.0 | 0.0 | 0.00 | 0.00 | 0.00 | 78 | 1013.5 |
| 20260507044519 | 29 | 360 | 0.0 | 0.0 | 0.00 | 0.00 | 0.00 | 79 | 1013.5 |
| 20260507044011 | 29 | 360 | 0.0 | 0.0 | 0.00 | 0.00 | 0.00 | 79 | 1013.5 |
| 20260507043512 | 29 | 360 | 0.0 | 0.0 | 0.00 | 0.00 | 0.00 | 79 | 1013.5 |
| 20260507043010 | 29 | 360 | 0.0 | 0.0 | 0.00 | 0.00 | 0.00 | 79 | 1013.6 |
| 20260507042511 | 29 | 360 | 0.0 | 1.0 | 0.00 | 0.00 | 0.00 | 79 | 1013.6 |
| 20260507042010 | 29 | 360 | 0.0 | 2.0 | 0.00 | 0.00 | 0.00 | 79 | 1013.8 |
| 20260507041508 | 29 | 360 | 0.0 | 2.0 | 0.00 | 0.00 | 0.00 | 79 | 1013.7 |
| 20260507041007 | 30 | 360 | 0.0 | 0.0 | 0.00 | 0.00 | 0.00 | 78 | 1013.8 |
| 20260507040506 | 30 | 360 | 0.0 | 0.0 | 0.00 | 0.00 | 0.00 | 77 | 1013.9 |
| 20260507040005 | 31 | 360 | 0.0 | 0.0 | 0.00 | 0.00 | 0.00 | 76 | 1013.9 |
| 20260507035504 | 31 | 360 | 0.0 | 0.0 | 0.00 | 0.00 | 0.00 | 75 | 1014.0 |
| 20260507035004 | 31 | 360 | 0.0 | 0.0 | 0.00 | 0.00 | 0.00 | 74 | 1014.0 |
| 20260507034505 | 31 | 360 | 0.0 | 0.0 | 0.00 | 0.00 | 0.00 | 75 | 1014.0 |
| 20260507034002 | 31 | 360 | 0.0 | 0.0 | 0.00 | 0.00 | 0.00 | 75 | 1014.1 |
| 20260507033501 | 32 | 360 | 0.0 | 0.0 | 0.00 | 0.00 | 0.00 | 74 | 1014.2 |
| 20260507033103 | 32 | 360 | 0.0 | 0.0 | 0.00 | 0.00 | 0.00 | 73 | 1014.3 |
| 20260507032559 | 33 | 360 | 0.0 | 0.0 | 0.00 | 0.00 | 0.00 | 71 | 1014.3 |
| 20260507032058 | 33 | 360 | 0.0 | 0.0 | 0.00 | 0.00 | 0.00 | 68 | 1014.3 |
| 20260507031558 | 34 | 360 | 0.0 | 0.0 | 0.00 | 0.00 | 0.00 | 67 | 1014.3 |
| 20260507031057 | 34 | 360 | 0.0 | 0.0 | 0.00 | 0.00 | 0.00 | 67 | 1014.4 |
| 20260507030556 | 34 | 360 | 0.0 | 0.0 | 0.00 | 0.00 | 0.00 | 66 | 1014.4 |
| 20260507030057 | 34 | 360 | 0.0 | 0.0 | 0.00 | 0.00 | 0.00 | 66 | 1014.4 |
| 20260507025558 | 35 | 360 | 0.0 | 0.0 | 0.00 | 0.00 | 0.00 | 65 | 1014.6 |
| 20260507025057 | 35 | 360 | 0.0 | 0.0 | 0.00 | 0.00 | 0.00 | 66 | 1014.5 |
| 20260507024557 | 35 | 360 | 0.0 | 0.0 | 0.00 | 0.00 | 0.00 | 65 | 1014.6 |
| 20260507024104 | 35 | 360 | 0.0 | 0.0 | 0.00 | 0.00 | 0.00 | 64 | 1014.5 |
| 20260507023600 | 35 | 360 | 0.0 | 0.0 | 0.00 | 0.00 | 0.00 | 64 | 1014.6 |
| 20260507023056 | 36 | 360 | 0.0 | 0.0 | 0.00 | 0.00 | 0.00 | 63 | 1014.6 |
| 20260507022556 | 36 | 360 | 0.0 | 0.0 | 0.00 | 0.00 | 0.00 | 62 | 1014.5 |
| 20260507022057 | 37 | 360 | 0.0 | 0.0 | 0.00 | 0.00 | 0.00 | 61 | 1014.4 |
| 20260507021605 | 37 | 360 | 0.0 | 0.0 | 0.00 | 0.00 | 0.00 | 60 | 1014.4 |
| 20260507021058 | 38 | 360 | 0.0 | 0.0 | 0.00 | 0.00 | 0.00 | 60 | 1014.6 |
| 20260507020556 | 38 | 360 | 0.0 | 0.0 | 0.00 | 0.00 | 0.00 | 60 | 1014.5 |
| 20260507020057 | 38 | 360 | 0.0 | 0.0 | 0.00 | 0.00 | 0.00 | 60 | 1014.5 |
| 20260507015556 | 39 | 360 | 0.0 | 0.0 | 0.00 | 0.00 | 0.00 | 59 | 1014.5 |
| 20260507015055 | 39 | 360 | 0.0 | 2.0 | 0.00 | 0.00 | 0.00 | 59 | 1014.4 |
| 20260507014558 | 39 | 360 | 0.0 | 3.0 | 0.00 | 0.00 | 0.00 | 58 | 1014.4 |
| 20260507014055 | 40 | 360 | 1.0 | 4.0 | 0.00 | 0.00 | 0.00 | 59 | 1014.3 |
| 20260507013555 | 40 | 360 | 3.0 | 5.0 | 0.00 | 0.00 | 0.00 | 57 | 1014.3 |
| 20260507013054 | 40 | 360 | 2.0 | 5.0 | 0.00 | 0.00 | 0.00 | 57 | 1014.3 |
| 20260507012601 | 40 | 360 | 3.0 | 5.0 | 0.00 | 0.00 | 0.00 | 57 | 1014.5 |
| 20260507012054 | 41 | 360 | 1.0 | 3.0 | 0.00 | 0.00 | 0.00 | 57 | 1014.5 |
| 20260507011557 | 40 | 360 | 0.0 | 4.0 | 0.00 | 0.00 | 0.00 | 56 | 1014.5 |
| 20260507011053 | 41 | 360 | 0.0 | 4.0 | 0.00 | 0.00 | 0.00 | 56 | 1014.5 |
| 20260507010554 | 41 | 360 | 2.0 | 4.0 | 0.00 | 0.00 | 0.00 | 57 | 1014.4 |
| 20260507010053 | 41 | 360 | 2.0 | 4.0 | 0.00 | 0.00 | 0.00 | 56 | 1014.5 |
| 20260507005553 | 41 | 360 | 0.0 | 3.0 | 0.00 | 0.00 | 0.00 | 56 | 1014.5 |
| 20260507005053 | 41 | 360 | 0.0 | 3.0 | 0.00 | 0.00 | 0.00 | 55 | 1014.5 |
| 20260507004552 | 41 | 360 | 0.0 | 4.0 | 0.00 | 0.00 | 0.00 | 55 | 1014.6 |
| 20260507004052 | 41 | 360 | 0.0 | 3.0 | 0.00 | 0.00 | 0.00 | 56 | 1014.6 |
| 20260507003552 | 41 | 360 | 0.0 | 5.0 | 0.00 | 0.00 | 0.00 | 56 | 1014.6 |
| 20260507003050 | 41 | 360 | 0.0 | 5.0 | 0.00 | 0.00 | 0.00 | 56 | 1014.6 |
| 20260507002550 | 41 | 360 | 0.0 | 5.0 | 0.00 | 0.00 | 0.00 | 56 | 1014.7 |
| 20260507002050 | 41 | 360 | 1.0 | 4.0 | 0.00 | 0.00 | 0.00 | 55 | 1014.8 |
| 20260507001550 | 41 | 360 | 1.0 | 4.0 | 0.00 | 0.00 | 0.00 | 55 | 1014.7 |
| 20260507001048 | 41 | 360 | 1.0 | 6.0 | 0.00 | 0.00 | 0.00 | 55 | 1014.8 |
| 20260507000548 | 41 | 360 | 2.0 | 6.0 | 0.00 | 0.00 | 0.00 | 56 | 1014.8 |
| 20260507000048 | 41 | 360 | 1.0 | 6.0 | 0.00 | 0.00 | 0.00 | 56 | 1014.8 |
| 20260506235548 | 41 | 360 | 1.0 | 5.0 | 0.00 | 0.00 | 0.00 | 56 | 1014.9 |
| 20260506235047 | 41 | 360 | 1.0 | 8.0 | 0.00 | 0.00 | 0.00 | 55 | 1014.9 |
| 20260506234603 | 41 | 360 | 3.0 | 8.0 | 0.00 | 0.00 | 0.00 | 55 | 1015.0 |
| 20260506234047 | 41 | 360 | 1.0 | 5.0 | 0.00 | 0.00 | 0.00 | 56 | 1015.0 |
| 20260506233547 | 41 | 360 | 0.0 | 4.0 | 0.00 | 0.00 | 0.00 | 55 | 1015.0 |
| 20260506233047 | 41 | 360 | 1.0 | 4.0 | 0.00 | 0.00 | 0.00 | 57 | 1015.1 |
| 20260506232549 | 41 | 360 | 1.0 | 4.0 | 0.00 | 0.00 | 0.00 | 56 | 1015.1 |
| 20260506232046 | 41 | 360 | 0.0 | 3.0 | 0.00 | 0.00 | 0.00 | 55 | 1015.1 |
| 20260506231546 | 41 | 360 | 1.0 | 6.0 | 0.00 | 0.00 | 0.00 | 55 | 1015.2 |
| 20260506231046 | 41 | 360 | 1.0 | 9.0 | 0.00 | 0.00 | 0.00 | 56 | 1015.2 |
| 20260506230548 | 41 | 360 | 4.0 | 9.0 | 0.00 | 0.00 | 0.00 | 55 | 1015.2 |
| 20260506230045 | 41 | 360 | 5.0 | 11.0 | 0.00 | 0.00 | 0.00 | 56 | 1015.2 |
| 20260506225548 | 41 | 360 | 5.0 | 12.0 | 0.00 | 0.00 | 0.00 | 55 | 1015.2 |
| 20260506225045 | 41 | 360 | 8.0 | 12.0 | 0.00 | 0.00 | 0.00 | 55 | 1015.2 |
| 20260506224547 | 41 | 360 | 5.0 | 8.0 | 0.00 | 0.00 | 0.00 | 55 | 1015.2 |
| 20260506224046 | 41 | 360 | 2.0 | 6.0 | 0.00 | 0.00 | 0.00 | 56 | 1015.2 |
| 20260506223548 | 41 | 360 | 0.0 | 6.0 | 0.00 | 0.00 | 0.00 | 56 | 1015.3 |
| 20260506223049 | 41 | 360 | 2.0 | 8.0 | 0.00 | 0.00 | 0.00 | 55 | 1015.3 |
| 20260506222545 | 41 | 360 | 1.0 | 5.0 | 0.00 | 0.00 | 0.00 | 56 | 1015.3 |
| 20260506222045 | 41 | 360 | 2.0 | 13.0 | 0.00 | 0.00 | 0.00 | 57 | 1015.3 |
| 20260506221544 | 41 | 360 | 8.0 | 13.0 | 0.00 | 0.00 | 0.00 | 56 | 1015.3 |
| 20260506221047 | 41 | 360 | 1.0 | 11.0 | 0.00 | 0.00 | 0.00 | 56 | 1015.3 |
| 20260506220543 | 41 | 360 | 6.0 | 13.0 | 0.00 | 0.00 | 0.00 | 56 | 1015.4 |
| 20260506220044 | 41 | 360 | 6.0 | 12.0 | 0.00 | 0.00 | 0.00 | 55 | 1015.4 |
| 20260506215543 | 41 | 360 | 3.0 | 11.0 | 0.00 | 0.00 | 0.00 | 55 | 1015.4 |
| 20260506215046 | 42 | 360 | 3.0 | 12.0 | 0.00 | 0.00 | 0.00 | 55 | 1015.4 |
| 20260506214544 | 42 | 360 | 1.0 | 4.0 | 0.00 | 0.00 | 0.00 | 55 | 1015.4 |
| 20260506214043 | 42 | 360 | 0.0 | 8.0 | 0.00 | 0.00 | 0.00 | 54 | 1015.4 |
| 20260506213545 | 42 | 360 | 4.0 | 8.0 | 0.00 | 0.00 | 0.00 | 55 | 1015.5 |
| 20260506213042 | 42 | 360 | 2.0 | 6.0 | 0.00 | 0.00 | 0.00 | 54 | 1015.5 |
| 20260506212543 | 41 | 360 | 0.0 | 9.0 | 0.00 | 0.00 | 0.00 | 55 | 1015.5 |
| 20260506212042 | 41 | 360 | 6.0 | 13.0 | 0.00 | 0.00 | 0.00 | 55 | 1015.5 |
| 20260506211542 | 41 | 360 | 4.0 | 12.0 | 0.00 | 0.00 | 0.00 | 56 | 1015.6 |
| 20260506211041 | 41 | 360 | 1.0 | 14.0 | 0.00 | 0.00 | 0.00 | 55 | 1015.6 |
| 20260506210542 | 41 | 360 | 4.0 | 14.0 | 0.00 | 0.00 | 0.00 | 55 | 1015.6 |
| 20260506210041 | 41 | 360 | 7.0 | 13.0 | 0.00 | 0.00 | 0.00 | 54 | 1015.6 |
| 20260506205541 | 41 | 360 | 2.0 | 13.0 | 0.00 | 0.00 | 0.00 | 54 | 1015.6 |
| 20260506205041 | 42 | 360 | 8.0 | 13.0 | 0.00 | 0.00 | 0.00 | 53 | 1015.7 |
| 20260506204551 | 42 | 360 | 0.0 | 4.0 | 0.00 | 0.00 | 0.00 | 56 | 1015.7 |
| 20260506204043 | 42 | 360 | 2.0 | 4.0 | 0.00 | 0.00 | 0.00 | 55 | 1015.8 |
| 20260506203540 | 41 | 360 | 1.0 | 11.0 | 0.00 | 0.00 | 0.00 | 55 | 1015.8 |
| 20260506203042 | 41 | 360 | 4.0 | 11.0 | 0.00 | 0.00 | 0.00 | 55 | 1015.9 |
| 20260506202540 | 41 | 360 | 4.0 | 14.0 | 0.00 | 0.00 | 0.00 | 55 | 1015.9 |
| 20260506202040 | 41 | 360 | 3.0 | 14.0 | 0.00 | 0.00 | 0.00 | 54 | 1016.0 |
| 20260506201541 | 42 | 360 | 3.0 | 9.0 | 0.00 | 0.00 | 0.00 | 55 | 1016.0 |
| 20260506201040 | 41 | 360 | 3.0 | 10.0 | 0.00 | 0.00 | 0.00 | 55 | 1016.0 |
| 20260506200538 | 41 | 360 | 5.0 | 10.0 | 0.00 | 0.00 | 0.00 | 54 | 1016.0 |
| 20260506200044 | 41 | 360 | 5.0 | 14.0 | 0.00 | 0.00 | 0.00 | 56 | 1016.0 |
| 20260506195538 | 41 | 360 | 5.0 | 14.0 | 0.00 | 0.00 | 0.00 | 55 | 1016.1 |
| 20260506195039 | 41 | 360 | 3.0 | 13.0 | 0.00 | 0.00 | 0.00 | 54 | 1016.0 |
| 20260506194544 | 42 | 360 | 6.0 | 13.0 | 0.00 | 0.00 | 0.00 | 53 | 1016.1 |
| 20260506194037 | 42 | 360 | 4.0 | 12.0 | 0.00 | 0.00 | 0.00 | 55 | 1016.1 |
| 20260506193541 | 42 | 360 | 1.0 | 12.0 | 0.00 | 0.00 | 0.00 | 55 | 1016.2 |
| 20260506193037 | 41 | 360 | 5.0 | 16.0 | 0.00 | 0.00 | 0.00 | 54 | 1016.1 |
| 20260506192536 | 42 | 360 | 8.0 | 16.0 | 0.00 | 0.00 | 0.00 | 54 | 1016.2 |
| 20260506192039 | 42 | 360 | 7.0 | 14.0 | 0.00 | 0.00 | 0.00 | 53 | 1016.1 |
| 20260506191534 | 41 | 360 | 4.0 | 13.0 | 0.00 | 0.00 | 0.00 | 55 | 1016.1 |
| 20260506191033 | 41 | 360 | 6.0 | 13.0 | 0.00 | 0.00 | 0.00 | 54 | 1016.1 |
| 20260506190533 | 41 | 360 | 6.0 | 12.0 | 0.00 | 0.00 | 0.00 | 54 | 1016.1 |
| 20260506190032 | 41 | 360 | 6.0 | 12.0 | 0.00 | 0.00 | 0.00 | 54 | 1016.2 |
| 20260506185532 | 41 | 360 | 5.0 | 11.0 | 0.00 | 0.00 | 0.00 | 54 | 1016.3 |
| 20260506185034 | 41 | 360 | 2.0 | 14.0 | 0.00 | 0.00 | 0.00 | 56 | 1016.3 |
| 20260506184531 | 41 | 360 | 9.0 | 15.0 | 0.00 | 0.00 | 0.00 | 54 | 1016.3 |
| 20260506184032 | 41 | 360 | 5.0 | 13.0 | 0.00 | 0.00 | 0.00 | 56 | 1016.3 |
| 20260506183531 | 40 | 360 | 5.0 | 16.0 | 0.00 | 0.00 | 0.00 | 56 | 1016.4 |
| 20260506183132 | 41 | 360 | 11.0 | 16.0 | 0.00 | 0.00 | 0.00 | 54 | 1016.4 |
| 20260506182529 | 41 | 360 | 4.0 | 12.0 | 0.00 | 0.00 | 0.00 | 57 | 1016.4 |
| 20260506182030 | 40 | 360 | 3.0 | 14.0 | 0.00 | 0.00 | 0.00 | 56 | 1016.4 |
| 20260506181529 | 40 | 360 | 7.0 | 13.0 | 0.00 | 0.00 | 0.00 | 56 | 1016.5 |
| 20260506181031 | 40 | 360 | 5.0 | 14.0 | 0.00 | 0.00 | 0.00 | 56 | 1016.5 |
| 20260506180528 | 40 | 360 | 5.0 | 16.0 | 0.00 | 0.00 | 0.00 | 56 | 1016.5 |
| 20260506180025 | 40 | 360 | 11.0 | 16.0 | 0.00 | 0.00 | 0.00 | 55 | 1016.6 |
| 20260506175523 | 40 | 360 | 10.0 | 14.0 | 0.00 | 0.00 | 0.00 | 56 | 1016.6 |
| 20260506175023 | 40 | 360 | 3.0 | 16.0 | 0.00 | 0.00 | 0.00 | 56 | 1016.7 |
| 20260506174523 | 39 | 360 | 11.0 | 16.0 | 0.00 | 0.00 | 0.00 | 56 | 1016.6 |
| 20260506174022 | 40 | 360 | 10.0 | 17.0 | 0.00 | 0.00 | 0.00 | 57 | 1016.7 |
| 20260506173522 | 40 | 360 | 5.0 | 11.0 | 0.00 | 0.00 | 0.00 | 56 | 1016.8 |
| 20260506173022 | 40 | 360 | 2.0 | 9.0 | 0.00 | 0.00 | 0.00 | 58 | 1016.9 |
| 20260506172520 | 39 | 360 | 3.0 | 11.0 | 0.00 | 0.00 | 0.00 | 59 | 1016.9 |
| 20260506172019 | 39 | 360 | 8.0 | 12.0 | 0.00 | 0.00 | 0.00 | 57 | 1016.9 |
| 20260506171532 | 39 | 360 | 8.0 | 13.0 | 0.00 | 0.00 | 0.00 | 57 | 1017.0 |
| 20260506171018 | 40 | 360 | 2.0 | 9.0 | 0.00 | 0.00 | 0.00 | 59 | 1017.0 |
| 20260506170518 | 40 | 360 | 1.0 | 13.0 | 0.00 | 0.00 | 0.00 | 58 | 1017.0 |
| 20260506170017 | 39 | 360 | 2.0 | 13.0 | 0.00 | 0.00 | 0.00 | 58 | 1017.0 |
| 20260506165518 | 39 | 360 | 2.0 | 17.0 | 0.00 | 0.00 | 0.00 | 59 | 1017.0 |
| 20260506165016 | 39 | 360 | 7.0 | 17.0 | 0.00 | 0.00 | 0.00 | 58 | 1017.0 |
| 20260506164519 | 39 | 360 | 3.0 | 14.0 | 0.00 | 0.00 | 0.00 | 60 | 1017.0 |
| 20260506164017 | 39 | 360 | 2.0 | 15.0 | 0.00 | 0.00 | 0.00 | 59 | 1017.1 |
| 20260506163518 | 39 | 360 | 2.0 | 10.0 | 0.00 | 0.00 | 0.00 | 57 | 1017.2 |
| 20260506163015 | 39 | 360 | 2.0 | 11.0 | 0.00 | 0.00 | 0.00 | 60 | 1017.2 |
| 20260506162513 | 39 | 360 | 1.0 | 10.0 | 0.00 | 0.00 | 0.00 | 60 | 1017.2 |
| 20260506162012 | 38 | 360 | 2.0 | 11.0 | 0.00 | 0.00 | 0.00 | 59 | 1017.0 |
| 20260506161512 | 39 | 360 | 1.0 | 13.0 | 0.00 | 0.00 | 0.00 | 59 | 1017.2 |
| 20260506161013 | 39 | 360 | 6.0 | 13.0 | 0.00 | 0.00 | 0.00 | 59 | 1017.2 |
| 20260506160511 | 38 | 360 | 2.0 | 12.0 | 0.00 | 0.00 | 0.00 | 60 | 1017.3 |
| 20260506160010 | 38 | 360 | 1.0 | 9.0 | 0.00 | 0.00 | 0.00 | 60 | 1017.2 |
| 20260506155508 | 38 | 360 | 2.0 | 13.0 | 0.00 | 0.00 | 0.00 | 60 | 1017.3 |
| 20260506155011 | 38 | 360 | 7.0 | 13.0 | 0.00 | 0.00 | 0.00 | 59 | 1017.3 |
| 20260506154507 | 38 | 360 | 1.0 | 6.0 | 0.00 | 0.00 | 0.00 | 60 | 1017.4 |
| 20260506154007 | 38 | 360 | 2.0 | 9.0 | 0.00 | 0.00 | 0.00 | 58 | 1017.4 |
| 20260506153507 | 38 | 360 | 2.0 | 6.0 | 0.00 | 0.00 | 0.00 | 58 | 1017.5 |
| 20260506153005 | 38 | 360 | 2.0 | 8.0 | 0.00 | 0.00 | 0.00 | 59 | 1017.4 |
| 20260506152507 | 38 | 360 | 2.0 | 8.0 | 0.00 | 0.00 | 0.00 | 57 | 1017.4 |
| 20260506152005 | 38 | 360 | 3.0 | 8.0 | 0.00 | 0.00 | 0.00 | 58 | 1017.4 |
| 20260506151504 | 38 | 360 | 2.0 | 10.0 | 0.00 | 0.00 | 0.00 | 57 | 1017.4 |
| 20260506151007 | 38 | 360 | 2.0 | 11.0 | 0.00 | 0.00 | 0.00 | 58 | 1017.4 |
| 20260506150605 | 38 | 360 | 2.0 | 11.0 | 0.00 | 0.00 | 0.00 | 58 | 1017.4 |
| 20260506150007 | 38 | 360 | 2.0 | 8.0 | 0.00 | 0.00 | 0.00 | 59 | 1017.4 |
| 20260506145502 | 37 | 360 | 2.0 | 11.0 | 0.00 | 0.00 | 0.00 | 58 | 1017.3 |
| 20260506145000 | 37 | 360 | 5.0 | 11.0 | 0.00 | 0.00 | 0.00 | 60 | 1017.4 |
| 20260506144617 | 37 | 360 | 1.0 | 4.0 | 0.00 | 0.00 | 0.00 | 61 | 1017.3 |
| 20260506144100 | 36 | 360 | 1.0 | 6.0 | 0.00 | 0.00 | 0.00 | 61 | 1017.4 |
| 20260506143558 | 36 | 360 | 2.0 | 6.0 | 0.00 | 0.00 | 0.00 | 61 | 1017.4 |
| 20260506143100 | 36 | 360 | 1.0 | 5.0 | 0.00 | 0.00 | 0.00 | 61 | 1017.4 |
| 20260506142557 | 36 | 360 | 2.0 | 6.0 | 0.00 | 0.00 | 0.00 | 61 | 1017.4 |
| 20260506142056 | 36 | 360 | 2.0 | 6.0 | 0.00 | 0.00 | 0.00 | 60 | 1017.5 |
| 20260506141558 | 36 | 360 | 1.0 | 5.0 | 0.00 | 0.00 | 0.00 | 61 | 1017.4 |
| 20260506141055 | 36 | 360 | 2.0 | 8.0 | 0.00 | 0.00 | 0.00 | 62 | 1017.3 |
| 20260506140555 | 35 | 360 | 2.0 | 5.0 | 0.00 | 0.00 | 0.00 | 62 | 1017.2 |
| 20260506140105 | 35 | 360 | 2.0 | 4.0 | 0.00 | 0.00 | 0.00 | 62 | 1017.2 |
| 20260506135554 | 35 | 360 | 2.0 | 6.0 | 0.00 | 0.00 | 0.00 | 63 | 1017.2 |
| 20260506135053 | 35 | 360 | 3.0 | 8.0 | 0.00 | 0.00 | 0.00 | 63 | 1017.2 |
| 20260506134553 | 35 | 360 | 1.0 | 8.0 | 0.00 | 0.00 | 0.00 | 64 | 1017.2 |
| 20260506134053 | 35 | 360 | 3.0 | 8.0 | 0.00 | 0.00 | 0.00 | 64 | 1017.2 |
| 20260506133554 | 35 | 360 | 3.0 | 8.0 | 0.00 | 0.00 | 0.00 | 65 | 1017.2 |
| 20260506133052 | 35 | 360 | 1.0 | 4.0 | 0.00 | 0.00 | 0.00 | 65 | 1017.3 |
| 20260506132552 | 34 | 360 | 1.0 | 4.0 | 0.00 | 0.00 | 0.00 | 67 | 1017.2 |
| 20260506132050 | 34 | 360 | 1.0 | 8.0 | 0.00 | 0.00 | 0.00 | 67 | 1017.0 |
| 20260506131553 | 34 | 360 | 0.0 | 8.0 | 0.00 | 0.00 | 0.00 | 68 | 1017.1 |
| 20260506131049 | 34 | 360 | 1.0 | 5.0 | 0.00 | 0.00 | 0.00 | 69 | 1017.0 |
| 20260506130550 | 34 | 360 | 0.0 | 5.0 | 0.00 | 0.00 | 0.00 | 69 | 1016.9 |
| 20260506130105 | 34 | 360 | 1.0 | 6.0 | 0.00 | 0.00 | 0.00 | 70 | 1017.0 |
| 20260506125548 | 34 | 360 | 2.0 | 6.0 | 0.00 | 0.00 | 0.00 | 69 | 1017.0 |
| 20260506125047 | 34 | 360 | 1.0 | 3.0 | 0.00 | 0.00 | 0.00 | 70 | 1016.9 |
| 20260506124547 | 33 | 360 | 1.0 | 4.0 | 0.00 | 0.00 | 0.00 | 70 | 1016.9 |
| 20260506124049 | 33 | 360 | 1.0 | 4.0 | 0.00 | 0.00 | 0.00 | 70 | 1016.8 |
| 20260506123548 | 33 | 360 | 0.0 | 5.0 | 0.00 | 0.00 | 0.00 | 70 | 1016.8 |
| 20260506123047 | 33 | 360 | 1.0 | 5.0 | 0.00 | 0.00 | 0.00 | 70 | 1016.8 |
| 20260506122546 | 33 | 360 | 0.0 | 3.0 | 0.00 | 0.00 | 0.00 | 70 | 1016.7 |
| 20260506122045 | 33 | 360 | 0.0 | 3.0 | 0.00 | 0.00 | 0.00 | 71 | 1016.7 |
| 20260506121544 | 33 | 360 | 0.0 | 3.0 | 0.00 | 0.00 | 0.00 | 70 | 1016.6 |
| 20260506121043 | 33 | 360 | 0.0 | 3.0 | 0.00 | 0.00 | 0.00 | 71 | 1016.5 |
| 20260506120543 | 33 | 360 | 0.0 | 3.0 | 0.00 | 0.00 | 0.00 | 71 | 1016.4 |
| 20260506120043 | 33 | 360 | 0.0 | 3.0 | 0.00 | 0.00 | 0.00 | 71 | 1016.4 |
| 20260506115542 | 33 | 360 | 0.0 | 3.0 | 0.00 | 0.00 | 0.00 | 70 | 1016.3 |
| 20260506115043 | 33 | 360 | 0.0 | 3.0 | 0.00 | 0.00 | 0.00 | 70 | 1016.3 |
| 20260506114545 | 33 | 360 | 0.0 | 3.0 | 0.00 | 0.00 | 0.00 | 70 | 1016.2 |
| 20260506114041 | 33 | 360 | 1.0 | 3.0 | 0.00 | 0.00 | 0.00 | 70 | 1016.2 |
| 20260506113541 | 33 | 360 | 0.0 | 2.0 | 0.00 | 0.00 | 0.00 | 71 | 1016.3 |
| 20260506113040 | 33 | 360 | 0.0 | 2.0 | 0.00 | 0.00 | 0.00 | 70 | 1016.2 |
| 20260506112540 | 33 | 360 | 0.0 | 2.0 | 0.00 | 0.00 | 0.00 | 70 | 1016.1 |
| 20260506112039 | 33 | 360 | 0.0 | 2.0 | 0.00 | 0.00 | 0.00 | 70 | 1016.1 |
| 20260506111541 | 33 | 360 | 0.0 | 2.0 | 0.00 | 0.00 | 0.00 | 70 | 1016.1 |
| 20260506111038 | 33 | 360 | 0.0 | 2.0 | 0.00 | 0.00 | 0.00 | 70 | 1016.1 |
| 20260506110539 | 33 | 360 | 0.0 | 1.0 | 0.00 | 0.00 | 0.00 | 70 | 1016.1 |
| 20260506110046 | 34 | 360 | 0.0 | 2.0 | 0.00 | 0.00 | 0.00 | 70 | 1016.1 |
| 20260506105538 | 33 | 360 | 1.0 | 3.0 | 0.00 | 0.00 | 0.00 | 69 | 1016.0 |
| 20260506105038 | 33 | 360 | 0.0 | 3.0 | 0.00 | 0.00 | 0.00 | 70 | 1015.9 |
| 20260506104537 | 33 | 360 | 0.0 | 3.0 | 0.00 | 0.00 | 0.00 | 70 | 1015.9 |
| 20260506104037 | 34 | 360 | 0.0 | 2.0 | 0.00 | 0.00 | 0.00 | 70 | 1015.8 |
| 20260506103537 | 34 | 360 | 0.0 | 2.0 | 0.00 | 0.00 | 0.00 | 70 | 1015.9 |
| 20260506103036 | 34 | 360 | 0.0 | 2.0 | 0.00 | 0.00 | 0.00 | 70 | 1015.9 |
| 20260506102539 | 34 | 360 | 0.0 | 2.0 | 0.00 | 0.00 | 0.00 | 70 | 1015.8 |
| 20260506102036 | 34 | 360 | 0.0 | 2.0 | 0.00 | 0.00 | 0.00 | 70 | 1015.8 |
| 20260506101549 | 34 | 360 | 0.0 | 1.0 | 0.00 | 0.00 | 0.00 | 71 | 1015.7 |
| 20260506101033 | 34 | 360 | 0.0 | 2.0 | 0.00 | 0.00 | 0.00 | 71 | 1015.7 |
| 20260506100534 | 34 | 360 | 0.0 | 2.0 | 0.00 | 0.00 | 0.00 | 70 | 1015.7 |
| 20260506100035 | 34 | 360 | 0.0 | 2.0 | 0.00 | 0.00 | 0.00 | 70 | 1015.7 |
| 20260506095533 | 34 | 360 | 0.0 | 2.0 | 0.00 | 0.00 | 0.00 | 70 | 1015.6 |
| 20260506095032 | 34 | 360 | 0.0 | 2.0 | 0.00 | 0.00 | 0.00 | 70 | 1015.6 |
| 20260506094531 | 34 | 360 | 0.0 | 2.0 | 0.00 | 0.00 | 0.00 | 70 | 1015.6 |
| 20260506094032 | 34 | 360 | 0.0 | 5.0 | 0.00 | 0.00 | 0.00 | 70 | 1015.6 |
| 20260506093531 | 34 | 360 | 2.0 | 5.0 | 0.00 | 0.00 | 0.00 | 69 | 1015.5 |
| 20260506093032 | 34 | 360 | 1.0 | 4.0 | 0.00 | 0.00 | 0.00 | 69 | 1015.5 |
| 20260506092530 | 34 | 360 | 1.0 | 5.0 | 0.00 | 0.00 | 0.00 | 69 | 1015.5 |
| 20260506092032 | 34 | 360 | 1.0 | 5.0 | 0.00 | 0.00 | 0.00 | 69 | 1015.5 |
| 20260506091530 | 34 | 360 | 2.0 | 5.0 | 0.00 | 0.00 | 0.00 | 69 | 1015.5 |
| 20260506091028 | 34 | 360 | 2.0 | 5.0 | 0.00 | 0.00 | 0.00 | 69 | 1015.5 |
| 20260506090527 | 34 | 360 | 0.0 | 3.0 | 0.00 | 0.00 | 0.00 | 69 | 1015.4 |
| 20260506090027 | 34 | 360 | 0.0 | 3.0 | 0.00 | 0.00 | 0.00 | 69 | 1015.4 |
| 20260506085527 | 34 | 360 | 0.0 | 5.0 | 0.00 | 0.00 | 0.00 | 69 | 1015.5 |
| 20260506085027 | 34 | 360 | 2.0 | 5.0 | 0.00 | 0.00 | 0.00 | 69 | 1015.5 |
| 20260506084529 | 34 | 360 | 1.0 | 4.0 | 0.00 | 0.00 | 0.00 | 68 | 1015.4 |
| 20260506084026 | 34 | 360 | 1.0 | 6.0 | 0.00 | 0.00 | 0.00 | 68 | 1015.4 |
| 20260506083529 | 34 | 360 | 2.0 | 6.0 | 0.00 | 0.00 | 0.00 | 68 | 1015.4 |
| 20260506083024 | 34 | 360 | 2.0 | 6.0 | 0.00 | 0.00 | 0.00 | 68 | 1015.3 |
| 20260506082524 | 34 | 360 | 1.0 | 6.0 | 0.00 | 0.00 | 0.00 | 68 | 1015.3 |
| 20260506082026 | 34 | 360 | 1.0 | 5.0 | 0.00 | 0.00 | 0.00 | 69 | 1015.3 |
| 20260506081523 | 34 | 360 | 1.0 | 5.0 | 0.00 | 0.00 | 0.00 | 68 | 1015.3 |
| 20260506081023 | 34 | 360 | 1.0 | 5.0 | 0.00 | 0.00 | 0.00 | 68 | 1015.3 |
| 20260506080522 | 35 | 360 | 1.0 | 3.0 | 0.00 | 0.00 | 0.00 | 68 | 1015.2 |
| 20260506073521 | 35 | 360 | 2.0 | 4.0 | 0.00 | 0.00 | 0.00 | 68 | 1015.4 |
| 20260506073019 | 35 | 360 | 2.0 | 5.0 | 0.00 | 0.00 | 0.00 | 68 | 1015.3 |
| 20260506072518 | 35 | 360 | 2.0 | 8.0 | 0.00 | 0.00 | 0.00 | 68 | 1015.3 |
| 20260506072018 | 35 | 360 | 3.0 | 8.0 | 0.00 | 0.00 | 0.00 | 67 | 1015.3 |
| 20260506071518 | 35 | 360 | 2.0 | 6.0 | 0.00 | 0.00 | 0.00 | 68 | 1015.4 |
| 20260506071015 | 35 | 360 | 1.0 | 6.0 | 0.00 | 0.00 | 0.00 | 67 | 1015.5 |
| 20260506070516 | 35 | 360 | 1.0 | 4.0 | 0.00 | 0.00 | 0.00 | 67 | 1015.4 |
| 20260506062013 | 35 | 360 | 2.0 | 5.0 | 0.00 | 0.00 | 0.00 | 67 | 1015.3 |
| 20260506061512 | 35 | 360 | 2.0 | 4.0 | 0.00 | 0.00 | 0.00 | 67 | 1015.3 |
| 20260506061019 | 35 | 360 | 1.0 | 4.0 | 0.00 | 0.00 | 0.00 | 67 | 1015.3 |
| 20260506060511 | 35 | 360 | 1.0 | 4.0 | 0.00 | 0.00 | 0.00 | 67 | 1015.3 |